Weather Roundup
Issued by NWS Springfield, MO

Home | Current Version | Previous Version | Text Only | Print | Product List | Glossary On
Versions: 1 2 3 4 5 6 7 8 9 10 11 12 13 14 15 16 17 18 19 20 21 22 23 24 25 26 27 28 29 30 31 32 33 34 35 36 37 38 39 40 41 42 43 44 45 46 47 48 49 50
000
NZUS99 KSGF 051607
HRRSGF

HOURLY WEATHER
NATIONAL WEATHER SERVICE SPRINGFIELD MO
1100 AM CDT THU MAY 05 2016

......SGF CWA......

CITY           SKY/WX    TMP DP  RH WIND       PRES   REMARKS
SPRINGFIELD    SUNNY     66  40  38 NW16      30.06S
JOPLIN         SUNNY     68  44  42 NW13      30.09S
WEST PLAINS    SUNNY     64  34  32 NW18G25   30.04S
ROLLA          SUNNY     60  40  47 NW14      30.04R
OSAGE BEACH    SUNNY     64  34  32 N9        30.07S
BRANSON        SUNNY     66  39  37 N13G20    30.07S

......SURROUNDING SGF CWA......

CITY           SKY/WX    TMP DP  RH WIND       PRES   REMARKS
CHANUTE        SUNNY     70  41  34 NW7       30.10F
PARSONS        SUNNY     70  43  37 NW10      30.11S
COFFEYVILLE    SUNNY     70  46  42 NW7       30.10S
EMPORIA        SUNNY     69  40  34 NW7       30.11S
GROVE OK       SUNNY     68  46  45 NW7       30.11S
ROGERS AR      SUNNY     66  40  38 NW14      30.09S
SILOAM SPRINGS SUNNY     66  41  39 N9        30.10S
HARRISON AR    SUNNY     66  41  40 NW8G22    30.06S
NEAR YELLVILLE SUNNY    N/A N/A N/A NW12G18   30.01F

......KANSAS AND MISSOURI......

CITY           SKY/WX    TMP DP  RH WIND       PRES   REMARKS
KANSAS CTY INT PTSUNNY   65  38  36 NE3       30.10R
DOWNTOWN KC    SUNNY     66  36  32 VRB3      30.09S
COLUMBIA       SUNNY     61  36  39 N10       30.07R
SEDALIA        SUNNY     66  39  37 N7        30.10R
ST JOSEPH      SUNNY     66  35  31 CALM      30.10R
ST LOUIS       MOSUNNY   59  38  45 N15       30.03S
SPIRIT OF STL  MOSUNNY   58  42  55 N12       30.04R
KIRKSVILLE     SUNNY     60  37  42 N12       30.09S
WICHITA        SUNNY     71  40  32 N5        30.12F
TOPEKA         SUNNY     69  44  40 W7        30.10S
OLATHE         SUNNY     65  40  39 CALM      30.10R

......TENNESSEE......

CITY           SKY/WX    TMP DP  RH WIND       PRES   REMARKS
MEMPHIS        MOSUNNY   68  43  40 NW13      29.97S
NASHVILLE      CLOUDY    57  38  48 NW17G30   29.85R

......ARKANSAS.......

CITY           SKY/WX    TMP DP  RH WIND       PRES   REMARKS
FAYETTEVILLE   SUNNY     67  44  43 NW10      30.09S
FT SMITH       SUNNY     69  42  37 W9        30.08S
LITTLE ROCK    SUNNY     71  41  33 NW12      30.03F

......OKLAHOMA.......

CITY           SKY/WX    TMP DP  RH WIND       PRES   REMARKS
TULSA          SUNNY     70  44  39 NW5       30.10R
PONCA CITY     SUNNY     69  46  43 NW5       30.12F
MCALESTER      MOSUNNY   71  42  35 N6        30.12R
OKLAHOMA CITY  SUNNY     72  37  28 CALM      30.13S

......IOWA............

CITY           SKY/WX    TMP DP  RH WIND       PRES   REMARKS
DES MOINES     CLOUDY    61  31  32 E3        30.11R
QUAD CITIES    SUNNY     55  37  50 NE8       30.07R

......ILLINOIS........

CITY           SKY/WX    TMP DP  RH WIND       PRES   REMARKS
QUINCY         SUNNY     56  40  55 NE12G22   30.07R
CHICAGO        SUNNY     54  40  59 NE15      30.01R



USA.gov is the U.S. government's official web portal to all federal, state and local government web resources and services.